Lihue, HI

10:24 AM HST on May 26, 2018 (GMT -1000)
Lihue

Weather History for PHLI - August, 2014

Change the Weather History Date:

Sunday, August 3, 2014

  Actual Average Record
Temperature  
Mean Temperature 82 °F 80 °F  
Max Temperature 86 °F 85 °F 88 °F (1981)
Min Temperature 78 °F 75 °F 67 °F (1955)
Degree Days  
Heating Degree Days 0 0  
Month to date heating degree days 0 0  
Since 1 June heating degree days 0 0  
Since 1 July heating degree days 0 0  
Cooling Degree Days 17 15  
Month to date cooling degree days 50 44  
Year to date cooling degree days 2114 2116  
Since 1 June cooling degree days 893 877  
Growing Degree Days 32 (Base 50)    
Moisture  
Dew Point 70 °F    
Average Humidity 66    
Maximum Humidity 74    
Minimum Humidity 57    
Precipitation  
Precipitation T in 0.08 in 0.83 in (1955)
Month to date precipitation 0.01 0.22  
Year to date precipitation 20.38 19.54  
Snow  
Snow 0.00 in - - ()
Month to date snowfall 0.0  
Since 1 June snowfall 0.0  
Since 1 July snowfall 0.0  
Snow Depth 0.00 in    
Sea Level Pressure  
Sea Level Pressure 30.01 in    
Wind  
Wind Speed 13 mph (ENE)    
Max Wind Speed 18 mph    
Max Gust Speed 22 mph    
Visibility 10 miles    
Events      
T = Trace of Precipitation, MM = Missing Value Source: NWS Daily Summary

Daily Weather History Graph

Daily Weather History Graph

Search for Another Location

Airport or City:

Astronomy

Aug. 03, 2014 Rise Set
Actual Time 6:10 AM HST 7:16 PM HST
Civil Twilight 5:46 AM HST 7:39 PM HST
Nautical Twilight 5:18 AM HST 8:07 PM HST
Astronomical Twilight 4:49 AM HST 8:36 PM HST
Moon 12:44 PM HST (8/3) No Moon Set
Length of Visible Light 13h 52m
Length of Day
13h 05m
Waxing Crescent, 49% of the Moon is Illuminated
Aug 3
Waxing Crescent
Aug 3
First Quarter
Aug 10
Full
Aug 17
Last Quarter
Aug 25
New

Hourly Weather History & Observations

Time (HST) Temp. Heat Index Dew Point Humidity Pressure Visibility Wind Dir Wind Speed Gust Speed Precip Events Conditions
12:39 AM 78.8 °F - 69.8 °F 74% 30.03 in 10.0 mi ENE 12.7 mph - N/A   Mostly Cloudy
12:53 AM 79.0 °F - 70.0 °F 74% 30.01 in 10.0 mi ENE 11.5 mph - N/A   Mostly Cloudy
1:32 AM 78.8 °F - 69.8 °F 74% 30.01 in 10.0 mi ENE 16.1 mph - N/A   Scattered Clouds
1:39 AM 78.8 °F - 69.8 °F 74% 30.01 in 10.0 mi ENE 13.8 mph - N/A   Mostly Cloudy
1:46 AM 78.8 °F - 69.8 °F 74% 30.01 in 10.0 mi ENE 13.8 mph - N/A   Scattered Clouds
1:53 AM 78.1 °F - 70.0 °F 76% 30.00 in 10.0 mi ENE 13.8 mph - N/A   Mostly Cloudy
2:15 AM 78.8 °F - 69.8 °F 74% 30.00 in 10.0 mi East 13.8 mph - N/A   Scattered Clouds
2:28 AM 78.8 °F - 69.8 °F 74% 30.00 in 10.0 mi ENE 15.0 mph - N/A   Mostly Cloudy
2:53 AM 78.1 °F - 70.0 °F 76% 29.99 in 10.0 mi East 10.4 mph - N/A   Mostly Cloudy
3:01 AM 78.8 °F - 69.8 °F 74% 29.99 in 10.0 mi East 12.7 mph - N/A   Scattered Clouds
3:10 AM 78.8 °F - 69.8 °F 74% 29.99 in 10.0 mi ENE 13.8 mph - N/A   Mostly Cloudy
3:53 AM 78.1 °F - 70.0 °F 76% 29.98 in 10.0 mi East 12.7 mph - N/A   Mostly Cloudy
4:18 AM 78.8 °F - 69.8 °F 74% 29.98 in 10.0 mi ENE 11.5 mph - N/A   Scattered Clouds
4:53 AM 78.1 °F - 70.0 °F 76% 29.98 in 10.0 mi ENE 13.8 mph - N/A   Mostly Cloudy
5:53 AM 78.1 °F - 69.1 °F 74% 29.99 in 10.0 mi East 12.7 mph - N/A   Clear
6:53 AM 79.0 °F - 69.1 °F 72% 30.01 in 10.0 mi East 13.8 mph - N/A   Clear
7:48 AM 80.6 °F 83.9 °F 69.8 °F 70% 30.03 in 10.0 mi ENE 15.0 mph - N/A   Mostly Cloudy
7:53 AM 80.1 °F 83.2 °F 70.0 °F 71% 30.02 in 10.0 mi East 12.7 mph - N/A   Scattered Clouds
8:07 AM 80.6 °F 83.9 °F 69.8 °F 70% 30.03 in 10.0 mi East 13.8 mph - N/A   Mostly Cloudy
8:17 AM 80.6 °F 83.9 °F 69.8 °F 70% 30.03 in 10.0 mi East 15.0 mph - N/A   Scattered Clouds
8:53 AM 82.0 °F 86.3 °F 71.1 °F 69% 30.02 in 10.0 mi East 10.4 mph - N/A   Scattered Clouds
9:53 AM 82.0 °F 86.3 °F 71.1 °F 69% 30.02 in 10.0 mi East 11.5 mph - N/A   Mostly Cloudy
10:01 AM 82.4 °F 87.2 °F 71.6 °F 70% 30.03 in 10.0 mi ENE 11.5 mph - N/A   Mostly Cloudy
10:27 AM 84.2 °F 88.4 °F 69.8 °F 62% 30.03 in 10.0 mi East 13.8 mph - 0.00 in   Mostly Cloudy
10:53 AM 84.9 °F 89.4 °F 70.0 °F 61% 30.02 in 10.0 mi East 13.8 mph - 0.00 in   Scattered Clouds
11:53 AM 84.9 °F 89.4 °F 70.0 °F 61% 30.01 in 10.0 mi ENE 11.5 mph - N/A   Overcast
12:53 PM 86.0 °F 90.7 °F 70.0 °F 59% 30.01 in 10.0 mi ENE 12.7 mph - N/A   Scattered Clouds
1:53 PM 84.9 °F 89.4 °F 70.0 °F 61% 29.99 in 10.0 mi ENE 12.7 mph - N/A   Scattered Clouds
2:53 PM 84.9 °F 90.1 °F 71.1 °F 63% 29.98 in 10.0 mi ENE 11.5 mph - N/A   Scattered Clouds
3:10 PM 84.2 °F 89.6 °F 71.6 °F 66% 29.99 in 10.0 mi ENE 12.7 mph - N/A   Mostly Cloudy
3:42 PM 84.2 °F 88.4 °F 69.8 °F 62% 29.99 in 10.0 mi ENE 12.7 mph - N/A   Mostly Cloudy
3:51 PM 82.4 °F 86.3 °F 69.8 °F 66% 29.99 in 10.0 mi ENE 13.8 mph - N/A   Mostly Cloudy
3:53 PM 82.4 °F 86.3 °F 69.8 °F 66% 29.99 in 10.0 mi ENE 13.8 mph - N/A   Mostly Cloudy
4:22 PM 84.2 °F 88.4 °F 69.8 °F 62% 29.99 in 10.0 mi ENE 12.7 mph - N/A   Overcast
4:53 PM 82.9 °F 87.0 °F 70.0 °F 65% 29.98 in 10.0 mi NE 15.0 mph - N/A   Overcast
5:53 PM 81.0 °F 84.9 °F 71.1 °F 72% 29.99 in 10.0 mi NE 12.7 mph - N/A   Mostly Cloudy
6:18 PM 80.6 °F 83.9 °F 69.8 °F 70% 30.00 in 10.0 mi NE 11.5 mph - N/A   Mostly Cloudy
6:28 PM 80.6 °F 83.9 °F 69.8 °F 70% 30.00 in 10.0 mi NE 13.8 mph - N/A   Scattered Clouds
6:36 PM 80.6 °F 83.9 °F 69.8 °F 70% 30.01 in 10.0 mi NE 13.8 mph - N/A   Mostly Cloudy
6:53 PM 80.1 °F 82.9 °F 69.1 °F 69% 30.00 in 10.0 mi NE 13.8 mph - N/A   Mostly Cloudy
7:07 PM 80.6 °F 83.9 °F 69.8 °F 70% 30.01 in 10.0 mi NE 12.7 mph - N/A   Mostly Cloudy
7:33 PM 78.8 °F - 71.6 °F 78% 30.02 in 10.0 mi NE 13.8 mph - N/A   Overcast
8:07 PM 78.8 °F - 69.8 °F 74% 30.03 in 10.0 mi NE 12.7 mph - N/A   Mostly Cloudy
8:27 PM 78.8 °F - 71.6 °F 78% 30.03 in 10.0 mi ENE 17.3 mph - N/A   Mostly Cloudy
8:42 PM 78.8 °F - 69.8 °F 74% 30.04 in 10.0 mi ENE 15.0 mph - N/A   Overcast
8:53 PM 79.0 °F - 71.1 °F 77% 30.03 in 10.0 mi NE 16.1 mph - N/A   Mostly Cloudy
9:53 PM 79.0 °F - 69.1 °F 72% 30.04 in 10.0 mi ENE 15.0 mph - N/A   Mostly Cloudy
10:53 PM 78.8 °F - 69.8 °F 74% 30.05 in 10.0 mi NE 16.1 mph - N/A   Mostly Cloudy
11:53 PM 78.1 °F - 70.0 °F 76% 30.04 in 10.0 mi ENE 15.0 mph - N/A   Partly Cloudy